period_start,C,m1,H,J0,J1,J2,J3,J4,J5,JA,JB,JC,JD,JJ,JK,JN,#
2016-08-20 00:01:49,0.00,0.09,0.00,19.58,26.00,29.38,14.81,48.52,1016.62,2045.00,3441.23,3102.98,3526.98,599.98,603.02,12.00,0000 0000 0000 0000 000000
2016-08-20 00:06:50,0.00,0.09,0.00,19.59,25.98,29.47,14.90,48.63,1016.61,2045.00,3441.02,3102.98,3526.96,600.15,603.14,12.05,0000 0000 0000 0000 000000
2016-08-20 00:11:51,0.00,0.09,0.00,19.56,25.98,29.30,14.83,48.59,1016.59,2045.00,3441.01,3102.97,3526.96,599.98,602.85,12.10,0000 0000 0000 0000 000000
2016-08-20 00:16:53,0.00,0.09,0.00,19.58,25.97,29.24,14.82,48.48,1016.55,2045.01,3441.11,3102.99,3526.97,599.98,602.96,12.15,0000 0000 0000 0000 000000
2016-08-20 00:21:54,0.00,0.09,0.00,19.56,25.97,29.41,14.88,48.65,1016.53,2045.01,3441.01,3102.97,3526.97,600.18,603.25,12.20,0000 0000 0000 0000 000000
2016-08-20 00:26:55,0.00,0.09,0.00,19.51,25.97,29.47,14.86,48.67,1016.42,2045.02,3441.00,3102.97,3526.79,599.80,602.86,12.25,0000 0000 0000 0000 000000
2016-08-20 00:31:56,0.01,0.09,0.00,19.55,25.97,29.42,14.81,48.67,1016.32,2045.02,3440.98,3102.90,3526.24,599.81,602.84,12.30,0000 0000 0000 0000 000000
2016-08-20 00:36:58,0.00,0.09,0.00,19.57,25.97,29.38,14.85,48.57,1016.24,2045.02,3440.96,3102.87,3526.10,600.01,602.71,12.35,0000 0000 0000 0000 000000
2016-08-20 00:41:59,0.01,0.09,0.00,19.56,25.97,29.32,14.81,48.58,1016.27,2045.03,3440.90,3102.61,3526.02,599.95,602.78,12.40,0000 0000 0000 0000 000000
2016-08-20 00:47:00,0.00,0.09,0.00,19.54,25.98,29.26,14.88,48.63,1016.18,2045.04,3440.63,3102.61,3526.02,600.24,603.07,12.45,0000 0000 0000 0000 000000
2016-08-20 00:52:01,0.01,0.10,0.00,19.54,25.98,29.38,14.80,48.61,1016.15,2045.03,3440.34,3102.40,3526.00,599.79,602.56,12.50,0000 0000 0000 0000 000000
2016-08-20 00:57:03,0.00,0.10,0.00,19.60,25.97,29.36,14.82,48.66,1016.14,2045.02,3440.03,3102.14,3526.00,599.95,602.63,12.55,0000 0000 0000 0000 000000
2016-08-20 01:02:04,0.00,0.10,0.00,19.59,25.99,29.48,14.76,48.69,1016.13,2045.03,3440.00,3102.03,3525.99,599.93,602.73,12.60,0000 0000 0000 0000 000000
2016-08-20 01:07:05,-0.00,0.10,0.00,19.58,25.98,29.49,14.79,48.61,1016.13,2045.04,3440.00,3102.02,3525.98,599.60,602.31,12.65,0000 0000 0000 0000 000000
2016-08-20 01:12:07,0.00,0.10,0.00,19.60,25.99,29.46,14.83,48.62,1016.12,2045.03,3440.00,3102.00,3525.91,599.96,602.59,12.70,0000 0000 0000 0000 000000
2016-08-20 01:17:08,0.00,0.10,0.00,19.60,26.00,29.51,14.80,48.78,1016.13,2045.01,3439.94,3102.00,3525.63,599.88,602.50,12.75,0000 0000 0000 0000 000000
2016-08-20 01:22:09,0.00,0.10,0.00,19.62,26.00,29.52,14.80,48.58,1016.12,2045.05,3439.97,3102.00,3525.73,600.26,602.92,12.80,0000 0000 0000 0000 000000
2016-08-20 01:27:10,0.02,0.10,0.00,19.62,26.00,29.43,14.76,48.68,1016.07,2045.03,3439.39,3102.00,3525.24,599.66,602.28,12.85,0000 0000 0000 0000 000000
2016-08-20 01:32:11,0.00,0.10,0.00,19.68,26.01,29.45,14.83,48.64,1015.88,2045.02,3439.09,3101.99,3525.02,600.03,602.43,12.90,0000 0000 0000 0000 000000
2016-08-20 01:37:13,0.00,0.10,0.00,19.69,26.02,29.33,14.83,48.54,1015.72,2045.01,3439.01,3101.98,3525.00,599.97,602.25,12.95,0000 0000 0000 0000 000000
2016-08-20 01:42:14,0.00,0.10,0.00,19.70,26.02,29.39,14.78,48.63,1015.76,2045.00,3439.00,3101.90,3525.00,600.11,602.37,13.00,0000 0000 0000 0000 000000
2016-08-20 01:47:15,0.00,0.10,0.00,19.77,26.04,29.37,14.81,48.53,1015.77,2045.00,3438.98,3101.77,3524.98,600.05,602.10,13.05,0000 0000 0000 0000 000000
2016-08-20 01:52:16,0.01,0.10,0.00,19.80,26.05,29.38,14.81,48.52,1015.70,2045.00,3438.93,3101.42,3524.88,599.91,601.90,13.10,0000 0000 0000 0000 000000
2016-08-20 01:57:18,0.02,0.10,0.00,19.83,26.07,29.45,14.86,48.63,1015.67,2045.00,3438.45,3101.09,3524.29,600.08,601.82,13.15,0000 0000 0000 0000 000000
2016-08-20 02:02:19,0.00,0.10,0.00,19.86,26.09,29.43,14.82,48.62,1015.66,2045.00,3438.08,3101.02,3524.02,599.95,601.79,13.20,0000 0000 0000 0000 000000
2016-08-20 02:07:20,0.00,0.10,0.00,19.87,26.10,29.45,14.85,48.61,1015.65,2045.00,3438.01,3101.00,3524.00,599.95,601.65,13.25,0000 0000 0000 0000 000000
2016-08-20 02:12:21,0.00,0.10,0.00,19.94,26.12,29.51,14.84,48.64,1015.65,2045.00,3437.99,3101.00,3523.99,600.22,601.92,13.30,0000 0000 0000 0000 000000
2016-08-20 02:17:23,0.00,0.10,0.00,19.98,26.15,29.49,14.87,48.67,1015.64,2044.99,3437.95,3100.96,3523.81,600.30,601.82,13.35,0000 0000 0000 0000 000000
2016-08-20 02:22:24,0.02,0.10,0.00,20.03,26.16,29.59,14.82,48.73,1015.64,2044.98,3437.47,3100.60,3523.15,599.81,601.27,13.40,0000 0000 0000 0000 000000
2016-08-20 02:27:25,0.02,0.10,0.00,20.05,26.19,29.61,14.80,48.68,1015.64,2044.97,3437.03,3100.09,3523.01,599.98,601.43,13.45,0000 0000 0000 0000 000000
2016-08-20 02:32:27,-0.00,0.10,0.00,20.09,26.21,29.66,14.78,48.76,1015.64,2044.89,3437.00,3100.00,3523.00,599.46,601.01,13.50,0000 0000 0000 0000 000000
2016-08-20 02:37:28,-0.04,0.10,0.00,20.10,26.23,29.67,14.86,48.73,1015.64,2044.53,3436.99,3100.00,3522.87,600.11,601.42,13.55,0000 0000 0000 0000 000000
2016-08-20 02:42:29,-0.01,0.10,0.00,20.15,26.26,29.68,14.79,48.68,1015.64,2044.11,3436.44,3099.96,3522.14,599.95,601.31,13.60,0000 0000 0000 0000 000000
2016-08-20 02:47:30,0.01,0.10,0.00,20.17,26.28,29.69,14.75,48.74,1015.64,2044.04,3436.03,3099.55,3522.01,600.03,601.23,13.65,0000 0000 0000 0000 000000
2016-08-20 02:52:32,0.00,0.10,0.00,20.21,26.31,29.71,14.77,48.69,1015.64,2044.00,3436.00,3099.09,3521.99,599.98,601.09,13.70,0000 0000 0000 0000 000000
2016-08-20 02:57:32,0.01,0.10,0.00,20.25,26.33,29.75,14.83,48.74,1015.64,2044.01,3435.75,3099.00,3521.70,599.83,600.80,13.76,0000 0000 0000 0000 000000
2016-08-20 03:02:34,0.01,0.10,0.00,20.29,26.35,29.77,14.77,48.63,1015.64,2044.00,3435.03,3098.92,3521.02,600.11,601.01,13.81,0000 0000 0000 0000 000000
2016-08-20 03:07:35,0.01,0.10,0.00,20.33,26.38,29.82,14.77,48.71,1015.64,2044.00,3435.00,3098.55,3520.99,599.87,600.75,13.86,0000 0000 0000 0000 000000
2016-08-20 03:12:36,0.02,0.10,0.00,20.36,26.41,29.88,14.85,48.73,1015.64,2043.99,3434.73,3098.03,3520.57,600.31,601.12,13.91,0000 0000 0000 0000 000000
2016-08-20 03:17:37,0.00,0.11,0.00,20.41,26.43,29.90,14.74,48.67,1015.64,2043.90,3434.08,3098.00,3520.03,599.98,600.73,13.96,0000 0000 0000 0000 000000
2016-08-20 03:22:39,-0.01,0.10,0.00,20.44,26.46,29.83,14.80,48.63,1015.62,2043.81,3434.00,3097.98,3520.00,600.25,600.89,14.01,0000 0000 0000 0000 000000
2016-08-20 03:27:40,-0.00,0.10,0.00,20.50,26.49,29.85,14.78,48.58,1015.61,2043.38,3433.69,3097.40,3519.60,600.05,600.57,14.06,0000 0000 0000 0000 000000
2016-08-20 03:32:41,-0.01,0.10,0.00,20.50,26.51,29.87,14.77,48.61,1015.54,2043.07,3433.05,3097.00,3519.03,599.91,600.28,14.11,0000 0000 0000 0000 000000
2016-08-20 03:37:43,-0.00,0.10,0.00,20.58,26.55,29.87,14.78,48.59,1015.53,2043.01,3433.00,3096.97,3519.00,600.24,600.38,14.16,0000 0000 0000 0000 000000
2016-08-20 03:42:44,0.00,0.10,0.00,20.62,26.57,29.82,14.73,48.62,1015.54,2043.00,3432.94,3096.85,3518.95,600.15,600.38,14.21,0000 0000 0000 0000 000000
2016-08-20 03:47:45,0.03,0.11,0.00,20.67,26.61,29.96,14.78,48.61,1015.38,2043.00,3432.29,3096.25,3518.39,600.25,600.27,14.26,0000 0000 0000 0000 000000
2016-08-20 03:52:46,0.01,0.11,0.00,20.75,26.64,29.99,14.67,48.53,1015.28,2043.00,3432.01,3096.02,3518.02,599.94,599.67,14.31,0000 0000 0000 0000 000000
2016-08-20 03:57:47,0.00,0.11,0.00,20.76,26.67,30.00,14.79,48.63,1015.25,2042.99,3431.99,3095.99,3517.99,600.22,599.98,14.36,0000 0000 0000 0000 000000
2016-08-20 04:02:48,0.00,0.11,0.00,20.80,26.70,30.01,14.71,48.49,1015.27,2042.96,3431.73,3095.94,3517.83,600.09,599.77,14.41,0000 0000 0000 0000 000000
2016-08-20 04:07:49,0.01,0.11,0.00,20.82,26.74,30.06,14.73,48.57,1015.20,2042.69,3431.15,3095.45,3517.11,599.79,599.34,14.46,0000 0000 0000 0000 000000
2016-08-20 04:12:50,-0.02,0.11,0.00,20.88,26.77,30.11,14.74,48.65,1015.18,2042.39,3431.00,3095.03,3517.00,600.04,599.47,14.51,0000 0000 0000 0000 000000
2016-08-20 04:17:52,-0.02,0.11,0.00,20.91,26.81,30.15,14.74,48.54,1015.18,2042.04,3430.88,3095.00,3516.90,599.87,599.25,14.56,0000 0000 0000 0000 000000
2016-08-20 04:22:53,0.02,0.11,0.00,20.96,26.84,30.12,14.73,48.63,1015.17,2042.00,3430.28,3094.96,3516.21,600.09,599.41,14.61,0000 0000 0000 0000 000000
2016-08-20 04:27:54,0.02,0.11,0.00,21.00,26.88,30.18,14.72,48.61,1015.17,2042.00,3430.01,3094.44,3516.01,599.88,599.12,14.66,0000 0000 0000 0000 000000
2016-08-20 04:32:55,0.01,0.11,0.00,21.06,26.91,30.26,14.66,48.55,1015.17,2041.99,3429.97,3094.03,3515.97,599.88,599.06,14.71,0000 0000 0000 0000 000000
2016-08-20 04:37:57,0.02,0.11,0.00,21.09,26.95,30.24,14.74,48.64,1015.16,2041.96,3429.44,3093.99,3515.31,600.11,599.23,14.76,0000 0000 0000 0000 000000
2016-08-20 04:42:57,-0.03,0.11,0.00,21.11,26.98,30.33,14.69,48.63,1015.15,2041.64,3429.01,3093.72,3514.99,599.90,598.95,14.81,0000 0000 0000 0000 000000
2016-08-20 04:47:59,-0.02,0.11,0.00,21.18,27.02,30.46,14.61,48.58,1015.15,2041.18,3428.98,3093.14,3514.89,600.02,598.90,14.86,0000 0000 0000 0000 000000
2016-08-20 04:53:00,0.01,0.11,0.00,21.17,27.06,30.52,14.75,48.51,1015.15,2041.01,3428.42,3093.00,3514.13,599.95,598.82,14.91,0000 0000 0000 0000 000000
2016-08-20 04:58:01,0.00,0.11,0.00,21.20,27.10,30.60,14.75,48.52,1015.15,2041.00,3428.05,3092.98,3514.00,600.09,598.95,14.96,0000 0000 0000 0000 000000
2016-08-20 05:03:02,0.01,0.11,0.00,21.26,27.13,30.70,14.74,48.50,1015.15,2041.00,3427.99,3092.54,3513.86,600.15,598.78,15.01,0000 0000 0000 0000 000000
2016-08-20 05:08:04,0.02,0.11,0.00,21.31,27.17,30.71,14.71,48.62,1015.14,2040.96,3427.71,3092.05,3513.17,600.07,598.66,15.06,0000 0000 0000 0000 000000
2016-08-20 05:13:05,-0.01,0.11,0.00,21.34,27.21,30.79,14.78,48.65,1015.13,2040.81,3427.16,3092.00,3513.00,600.29,598.84,15.11,0000 0000 0000 0000 000000
2016-08-20 05:18:06,-0.04,0.11,0.00,21.36,27.25,30.77,14.81,48.69,1015.03,2040.32,3427.00,3091.94,3512.88,600.45,598.80,15.16,0000 0000 0000 0000 000000
2016-08-20 05:23:07,0.02,0.11,0.00,21.37,27.28,30.81,14.76,48.69,1015.04,2040.04,3426.96,3091.23,3512.11,600.31,598.66,15.21,0000 0000 0000 0000 000000
2016-08-20 05:28:08,0.01,0.11,0.00,21.40,27.32,30.89,14.70,48.63,1015.07,2040.00,3426.29,3091.01,3511.99,600.28,598.70,15.26,0000 0000 0000 0000 000000
2016-08-20 05:33:10,0.00,0.11,0.00,21.62,27.36,30.92,14.71,48.63,1015.13,2039.99,3426.00,3090.96,3511.64,599.98,598.01,15.31,0000 0000 0000 0000 000000
2016-08-20 05:38:11,0.03,0.11,0.00,22.67,27.42,30.89,14.57,48.31,1015.14,2039.96,3425.83,3090.34,3511.06,600.38,596.27,15.36,0000 0000 0000 0000 000000
2016-08-20 05:43:12,-0.04,0.11,0.00,23.43,27.48,30.58,14.54,48.13,1015.14,2039.51,3425.16,3090.00,3510.64,600.24,594.60,15.41,0000 0000 0000 0000 000000
2016-08-20 05:48:13,0.00,0.11,0.00,23.58,27.55,30.45,14.41,48.15,1015.15,2039.01,3424.96,3089.43,3510.00,600.11,593.98,15.46,0000 0000 0000 0000 000000
2016-08-20 05:53:15,0.03,0.11,0.00,23.63,27.63,30.51,14.42,48.10,1015.14,2038.99,3424.43,3088.99,3509.47,599.82,593.69,15.51,0000 0000 0000 0000 000000
2016-08-20 05:58:16,-0.00,0.11,0.00,23.68,27.70,30.60,14.44,48.14,1015.12,2038.77,3423.99,3088.39,3508.93,600.04,593.80,15.56,0000 0000 0000 0000 000000
2016-08-20 06:03:17,-0.03,0.11,0.00,23.86,27.78,30.64,14.43,48.22,1015.13,2038.11,3423.32,3087.99,3508.13,599.92,593.42,15.61,0000 0000 0000 0000 000000
2016-08-20 06:08:18,0.03,0.11,0.00,23.81,27.85,30.72,14.44,48.13,1015.11,2037.99,3422.93,3087.32,3507.60,600.06,593.60,15.66,0000 0000 0000 0000 000000
2016-08-20 06:13:19,-0.02,0.11,0.00,23.87,27.92,30.79,14.50,48.11,1015.08,2037.67,3422.18,3087.00,3507.01,600.04,593.41,15.71,0000 0000 0000 0000 000000
2016-08-20 06:18:21,-0.01,0.11,0.00,24.02,27.99,30.83,14.45,48.16,1015.09,2037.10,3421.89,3086.34,3506.35,599.91,593.03,15.76,0000 0000 0000 0000 000000
2016-08-20 06:23:22,0.04,0.11,0.00,24.01,28.06,30.90,14.46,48.13,1015.08,2037.00,3421.09,3085.72,3505.42,599.88,592.93,15.81,0000 0000 0000 0000 000000
2016-08-20 06:28:23,0.02,0.11,0.00,24.03,28.12,30.95,14.45,48.13,1015.09,2036.94,3420.44,3085.05,3504.91,599.98,593.00,15.86,0000 0000 0000 0000 000000
2016-08-20 06:33:25,-0.03,0.11,0.00,23.99,28.18,31.02,14.39,48.09,1015.13,2036.48,3419.99,3084.78,3504.10,600.05,593.22,15.91,0000 0000 0000 0000 000000
2016-08-20 06:38:26,0.00,0.11,0.00,24.09,28.24,31.04,14.41,48.13,1015.12,2036.04,3419.37,3084.06,3503.94,599.93,592.75,15.96,0000 0000 0000 0000 000000
2016-08-20 06:43:27,0.02,0.11,0.00,24.11,28.29,31.08,14.45,48.15,1015.14,2036.00,3418.96,3083.72,3503.09,599.97,593.10,16.01,0000 0000 0000 0000 000000
2016-08-20 06:48:28,0.03,0.11,0.00,24.19,28.34,31.11,14.42,48.10,1015.13,2035.97,3418.20,3083.04,3502.53,599.96,592.73,16.06,0000 0000 0000 0000 000000
2016-08-20 06:53:29,-0.04,0.11,0.00,24.18,28.39,31.14,14.49,48.06,1015.15,2035.62,3417.99,3082.92,3502.00,600.33,593.09,16.12,0000 0000 0000 0000 000000
2016-08-20 06:58:30,0.00,0.11,0.00,24.27,28.44,31.17,14.49,48.08,1015.14,2035.04,3417.34,3082.12,3501.47,600.20,592.80,16.17,0000 0000 0000 0000 000000
2016-08-20 07:03:32,0.00,0.11,0.00,24.32,28.48,31.17,14.37,48.13,1015.13,2035.00,3417.01,3081.99,3501.00,599.78,592.28,16.22,0000 0000 0000 0000 000000
2016-08-20 07:08:33,0.02,0.11,0.00,24.32,28.52,31.21,14.35,48.08,1015.15,2034.99,3416.73,3081.67,3500.81,599.50,592.15,16.27,0000 0000 0000 0000 000000
2016-08-20 07:13:35,0.02,0.12,0.00,24.34,28.56,31.24,14.43,48.05,1015.13,2034.93,3416.13,3081.15,3500.18,600.09,592.57,16.32,0000 0000 0000 0000 000000
2016-08-20 07:18:36,-0.02,0.11,0.00,24.40,28.59,31.26,14.43,48.10,1015.13,2034.70,3416.00,3081.00,3500.00,600.05,592.39,16.37,0000 0000 0000 0000 000000
2016-08-20 07:23:37,-0.03,0.11,0.00,24.44,28.62,31.27,14.43,47.91,1015.11,2034.19,3415.87,3080.98,3499.91,600.37,592.64,16.42,0000 0000 0000 0000 000000
2016-08-20 07:28:39,0.03,0.11,0.00,24.49,28.65,31.28,14.42,47.98,1015.06,2034.02,3415.18,3080.46,3499.20,600.15,592.30,16.47,0000 0000 0000 0000 000000
2016-08-20 07:33:40,0.00,0.11,0.00,24.51,28.67,31.30,14.37,48.06,1015.02,2034.00,3415.00,3080.03,3499.00,599.82,591.92,16.52,0000 0000 0000 0000 000000
2016-08-20 07:38:41,0.01,0.11,0.00,24.56,28.70,31.30,14.38,48.02,1014.93,2034.00,3414.71,3079.98,3498.72,599.84,591.74,16.57,0000 0000 0000 0000 000000
2016-08-20 07:43:42,0.01,0.12,0.00,24.53,28.72,31.33,14.42,47.98,1014.89,2033.98,3414.04,3079.92,3498.06,600.06,592.04,16.62,0000 0000 0000 0000 000000
2016-08-20 07:48:44,0.01,0.12,0.00,24.58,28.75,31.35,14.40,48.12,1014.80,2033.93,3414.00,3079.35,3498.00,599.82,591.56,16.67,0000 0000 0000 0000 000000
2016-08-20 07:53:45,-0.01,0.12,0.00,24.62,28.77,31.35,14.43,48.05,1014.75,2033.71,3413.95,3079.02,3497.97,600.14,591.89,16.72,0000 0000 0000 0000 000000
2016-08-20 07:58:46,-0.03,0.11,0.00,24.63,28.79,31.37,14.33,48.02,1014.72,2033.36,3413.70,3079.00,3497.72,599.73,591.50,16.77,0000 0000 0000 0000 000000
2016-08-20 08:03:48,0.00,0.11,0.00,24.66,28.81,31.38,14.45,47.96,1014.70,2033.16,3413.14,3079.00,3497.09,600.22,591.77,16.82,0000 0000 0000 0000 000000
2016-08-20 08:08:49,-0.01,0.11,0.00,24.68,28.82,31.39,14.39,47.99,1014.72,2033.04,3413.01,3078.92,3497.01,599.92,591.61,16.87,0000 0000 0000 0000 000000
2016-08-20 08:13:50,0.02,0.11,0.00,24.70,28.85,31.41,14.38,48.00,1014.77,2033.01,3412.83,3078.62,3496.81,599.86,591.42,16.92,0000 0000 0000 0000 000000
2016-08-20 08:18:51,0.02,0.12,0.00,24.71,28.85,31.42,14.37,47.88,1014.99,2033.00,3412.04,3077.98,3496.02,599.76,591.44,16.97,0000 0000 0000 0000 000000
2016-08-20 08:23:52,0.05,0.12,0.00,24.73,28.87,31.43,14.31,47.92,1015.08,2033.00,3411.54,3077.13,3495.17,599.68,591.39,17.02,0000 0000 0000 0000 000000
2016-08-20 08:28:54,0.00,0.12,0.00,24.74,28.88,31.44,14.41,47.95,1015.08,2033.00,3411.04,3077.00,3495.00,599.97,591.59,17.07,0000 0000 0000 0000 000000
2016-08-20 08:33:55,0.00,0.12,0.00,24.75,28.90,31.45,14.39,47.89,1015.01,2033.00,3411.00,3076.99,3494.96,600.14,591.74,17.12,0000 0000 0000 0000 000000
2016-08-20 08:38:56,0.00,0.12,0.00,24.75,28.90,31.47,14.40,47.91,1014.94,2032.98,3410.98,3076.88,3494.66,599.96,591.48,17.17,0000 0000 0000 0000 000000
2016-08-20 08:43:57,0.02,0.12,0.00,24.77,28.92,31.47,14.38,48.00,1014.97,2032.94,3410.81,3076.34,3494.08,599.86,591.32,17.22,0000 0000 0000 0000 000000
2016-08-20 08:48:59,0.01,0.12,0.00,24.78,28.92,31.49,14.37,47.93,1015.07,2032.86,3410.22,3076.06,3494.00,599.86,591.49,17.27,0000 0000 0000 0000 000000
2016-08-20 08:54:00,-0.01,0.12,0.00,24.80,28.94,31.51,14.47,47.99,1015.09,2032.68,3410.01,3076.00,3494.00,600.29,591.85,17.32,0000 0000 0000 0000 000000
2016-08-20 08:59:01,-0.00,0.12,0.00,24.80,28.95,31.53,14.34,47.92,1015.00,2032.56,3410.00,3076.00,3494.00,599.79,591.14,17.37,0000 0000 0000 0000 000000
2016-08-20 09:04:03,-0.01,0.12,0.00,24.81,28.95,31.53,14.43,47.95,1015.06,2032.47,3410.00,3076.00,3493.97,600.12,591.62,17.42,0000 0000 0000 0000 000000
2016-08-20 09:09:04,-0.01,0.12,0.00,24.82,28.97,31.55,14.38,47.74,1015.08,2032.21,3409.95,3075.99,3493.63,600.26,591.76,17.47,0000 0000 0000 0000 000000
2016-08-20 09:14:05,0.00,0.12,0.00,24.84,28.97,31.55,14.40,47.84,1015.04,2032.14,3409.87,3075.97,3493.20,599.86,591.30,17.52,0000 0000 0000 0000 000000
2016-08-20 09:19:06,0.00,0.12,0.00,24.85,28.97,31.57,14.40,47.88,1015.09,2032.05,3409.46,3075.94,3493.07,600.37,591.75,17.57,0000 0000 0000 0000 000000
2016-08-20 09:24:08,0.01,0.12,0.00,24.86,28.98,31.56,14.45,47.86,1015.11,2032.04,3409.08,3075.67,3493.01,600.31,591.56,17.62,0000 0000 0000 0000 000000
2016-08-20 09:29:09,0.00,0.12,0.00,24.87,28.98,31.59,14.40,47.83,1015.13,2032.01,3409.00,3075.33,3492.99,600.11,591.52,17.67,0000 0000 0000 0000 000000
2016-08-20 09:34:10,0.06,0.12,0.00,24.87,28.99,31.59,14.40,47.88,1015.04,2032.02,3408.27,3074.35,3492.12,599.96,591.30,17.72,0000 0000 0000 0000 000000
2016-08-20 09:39:11,0.01,0.12,0.00,24.87,28.99,31.60,14.40,47.86,1014.91,2032.03,3408.00,3074.00,3491.61,600.24,591.51,17.77,0000 0000 0000 0000 000000
2016-08-20 09:44:13,0.00,0.12,0.00,24.89,28.99,31.61,14.41,47.80,1014.84,2032.03,3407.99,3074.00,3491.35,600.01,591.24,17.82,0000 0000 0000 0000 000000
2016-08-20 09:49:14,0.01,0.12,0.00,24.90,28.99,31.62,14.38,47.86,1014.96,2032.01,3407.75,3073.98,3491.04,599.83,591.12,17.87,0000 0000 0000 0000 000000
2016-08-20 09:54:15,0.01,0.12,0.00,24.90,28.98,31.65,14.38,47.77,1014.84,2032.00,3407.29,3073.96,3490.99,600.01,591.25,17.92,0000 0000 0000 0000 000000
2016-08-20 09:59:16,0.00,0.13,0.00,24.92,28.97,31.68,14.38,47.83,1014.79,2032.00,3407.05,3073.92,3490.98,599.93,591.02,17.97,0000 0000 0000 0000 000000
2016-08-20 10:04:18,0.00,0.13,0.00,24.92,28.97,31.79,14.40,47.78,1014.97,2032.01,3407.01,3073.85,3490.96,599.75,591.04,18.02,0000 0000 0000 0000 000000
2016-08-20 10:09:19,0.00,0.13,0.00,24.92,28.97,31.81,14.38,47.77,1015.06,2032.03,3406.99,3073.75,3490.96,600.01,591.25,18.07,0000 0000 0000 0000 000000
2016-08-20 10:14:20,-0.00,0.13,0.00,24.92,28.96,31.82,14.39,47.80,1015.10,2032.03,3406.99,3073.87,3490.95,600.03,591.14,18.12,0000 0000 0000 0000 000000
2016-08-20 10:19:21,0.00,0.13,0.00,24.95,28.95,31.78,14.43,47.85,1015.10,2032.05,3406.99,3073.87,3490.95,600.18,591.40,18.17,0000 0000 0000 0000 000000
2016-08-20 10:24:22,0.05,0.13,0.00,24.96,28.95,31.71,14.41,47.78,1015.07,2032.07,3406.45,3073.32,3490.35,600.18,591.31,18.22,0000 0000 0000 0000 000000
2016-08-20 10:29:24,0.08,0.13,0.00,24.97,28.95,31.65,14.34,47.83,1015.07,2032.22,3405.23,3072.08,3489.07,599.78,590.89,18.27,0000 0000 0000 0000 000000
2016-08-20 10:34:25,0.01,0.13,0.00,24.98,28.94,31.64,14.33,47.82,1014.90,2032.40,3405.24,3072.00,3488.99,600.06,591.09,18.32,0000 0000 0000 0000 000000
2016-08-20 10:39:27,-0.00,0.13,0.00,25.01,28.92,31.52,14.33,47.83,1014.73,2032.52,3405.13,3072.00,3488.98,600.00,591.01,18.37,0000 0000 0000 0000 000000
2016-08-20 10:44:28,-0.00,0.13,0.00,25.02,28.92,31.49,14.40,47.78,1014.74,2032.41,3405.03,3072.00,3488.96,600.14,590.99,18.42,0000 0000 0000 0000 000000
2016-08-20 10:49:29,0.02,0.13,0.00,25.06,28.92,31.49,14.39,47.63,1014.88,2032.53,3405.00,3072.00,3488.95,600.03,590.98,18.47,0000 0000 0000 0000 000000
2016-08-20 10:54:31,0.01,0.13,0.00,25.10,28.92,31.49,14.31,47.69,1014.88,2032.78,3405.00,3072.00,3488.90,599.99,590.78,18.52,0000 0000 0000 0000 000000
2016-08-20 10:59:32,-0.00,0.13,0.00,25.14,28.92,31.48,14.38,47.52,1014.77,2032.71,3404.98,3071.99,3488.59,600.06,590.77,18.57,0000 0000 0000 0000 000000
2016-08-20 11:04:34,0.00,0.13,0.00,25.20,28.92,31.49,14.39,47.52,1014.73,2032.67,3404.97,3071.98,3488.25,600.24,590.81,18.62,0000 0000 0000 0000 000000
2016-08-20 11:09:35,-0.01,0.13,0.00,25.26,28.92,31.49,14.33,47.67,1014.68,2032.59,3404.89,3071.96,3488.07,599.89,590.31,18.67,0000 0000 0000 0000 000000
2016-08-20 11:14:36,-0.00,0.13,0.00,25.33,28.92,31.50,14.32,47.67,1014.68,2032.43,3404.61,3071.91,3488.01,600.04,590.28,18.72,0000 0000 0000 0000 000000
2016-08-20 11:19:37,0.00,0.13,0.00,25.39,28.92,31.50,14.25,47.79,1014.67,2032.40,3404.26,3071.88,3488.01,599.97,590.12,18.77,0000 0000 0000 0000 000000
2016-08-20 11:24:38,-0.00,0.13,0.00,25.38,28.92,31.50,14.34,47.81,1014.68,2032.24,3404.05,3071.70,3488.00,600.17,590.31,18.82,0000 0000 0000 0000 000000
2016-08-20 11:29:40,0.01,0.13,0.00,25.35,28.92,31.51,14.35,47.67,1014.68,2032.30,3404.01,3071.57,3488.00,600.10,590.37,18.87,0000 0000 0000 0000 000000
2016-08-20 11:34:41,0.00,0.13,0.00,25.34,28.92,31.51,14.40,47.72,1014.68,2032.36,3404.00,3071.44,3488.00,600.32,590.52,18.92,0000 0000 0000 0000 000000
2016-08-20 11:39:42,0.01,0.13,0.00,25.28,28.92,31.52,14.31,47.55,1014.69,2032.42,3404.00,3071.42,3488.00,599.88,590.29,18.97,0000 0000 0000 0000 000000
2016-08-20 11:44:44,0.00,0.14,0.00,25.23,28.92,31.52,14.36,47.70,1014.67,2032.44,3403.91,3071.11,3487.95,600.07,590.62,19.02,0000 0000 0000 0000 000000
2016-08-20 11:49:45,0.05,0.14,0.00,25.17,28.91,31.52,14.37,47.67,1014.66,2032.54,3403.11,3071.00,3487.23,599.98,590.54,19.07,0000 0000 0000 0000 000000
2016-08-20 11:54:46,0.02,0.14,0.00,25.12,28.90,31.54,14.31,47.70,1014.66,2032.65,3402.47,3070.95,3486.99,600.01,590.63,19.12,0000 0000 0000 0000 000000
2016-08-20 11:59:47,0.01,0.14,0.00,25.07,28.90,31.55,14.34,47.61,1014.66,2032.74,3402.02,3070.60,3486.76,600.04,590.82,19.17,0000 0000 0000 0000 000000
2016-08-20 12:04:48,0.01,0.14,0.00,25.03,28.90,31.54,14.43,47.69,1014.66,2032.85,3402.00,3070.35,3486.46,600.14,590.91,19.22,0000 0000 0000 0000 000000
2016-08-20 12:09:49,0.00,0.14,0.00,25.01,28.90,31.53,14.39,47.71,1014.66,2032.85,3401.99,3070.17,3486.16,599.90,590.78,19.27,0000 0000 0000 0000 000000
2016-08-20 12:14:51,0.00,0.14,0.00,24.99,28.90,31.54,14.34,47.63,1014.66,2032.81,3401.94,3070.05,3486.04,600.05,591.06,19.32,0000 0000 0000 0000 000000
2016-08-20 12:19:52,0.00,0.14,0.00,24.98,28.90,31.52,14.31,47.57,1014.66,2032.79,3401.65,3070.03,3486.00,599.66,590.70,19.37,0000 0000 0000 0000 000000
2016-08-20 12:24:53,0.01,0.14,0.00,24.97,28.90,31.52,14.33,47.55,1014.66,2032.71,3401.20,3070.01,3486.00,599.86,590.81,19.42,0000 0000 0000 0000 000000
2016-08-20 12:29:54,-0.00,0.14,0.00,24.96,28.89,31.52,14.34,47.62,1014.66,2032.67,3401.02,3070.00,3486.00,599.92,590.94,19.48,0000 0000 0000 0000 000000
2016-08-20 12:34:55,-0.03,0.14,0.00,24.95,28.88,31.54,14.32,47.64,1014.62,2032.55,3401.00,3070.00,3486.00,599.87,590.83,19.53,0000 0000 0000 0000 000000
2016-08-20 12:39:57,0.01,0.14,0.00,24.92,28.87,31.53,14.31,47.71,1014.54,2032.45,3401.00,3070.00,3485.98,599.90,590.94,19.58,0000 0000 0000 0000 000000
2016-08-20 12:44:58,0.02,0.14,0.00,24.91,28.87,31.54,14.32,47.60,1014.45,2032.67,3401.00,3070.00,3485.99,599.98,590.92,19.63,0000 0000 0000 0000 000000
2016-08-20 12:50:00,0.00,0.14,0.00,24.90,28.87,31.52,14.40,47.67,1014.34,2032.74,3400.99,3070.00,3485.97,600.13,591.08,19.68,0000 0000 0000 0000 000000
2016-08-20 12:55:01,-0.00,0.14,0.00,24.90,28.87,31.52,14.34,47.77,1014.26,2032.66,3400.98,3070.00,3485.95,599.79,590.67,19.73,0000 0000 0000 0000 000000